Eagle, AK

6:02 PM AKST on November 21, 2017 (GMT -0900)
Eagle

Weather History for PAEG - December, 2012

Change the Weather History Date:

Thursday, December 13, 2012

  Actual Average (PABN) Record (PABN)
Temperature  
Mean Temperature 13 °F -  
Max Temperature 18 °F 3 °F 39 °F (1996)
Min Temperature 7 °F -1 °F -16 °F (1998)
Degree Days  
Heating Degree Days 52    
Moisture  
Dew Point 8 °F    
Average Humidity 80    
Maximum Humidity 85    
Minimum Humidity 71    
Precipitation  
Precipitation 0.05 in - - ()
Sea Level Pressure  
Sea Level Pressure 29.30 in    
Wind  
Wind Speed 5 mph (ESE)    
Max Wind Speed 13 mph    
Max Gust Speed 21 mph    
Visibility 4 miles    
Events Snow    
Averages and records for this station are not official NWS values.
T = Trace of Precipitation, MM = Missing Value Source: NWS Daily Summary

Daily Weather History Graph

Daily Weather History Graph

Search for Another Location

Airport or City:

Trip Planner

Search our weather history database for the weather conditions in past years. The results will help you decide how hot, cold, wet, or windy it might be!

Date:

Astronomy

Dec. 13, 2012 Rise Set
Actual Time 10:22 AM AKST 2:15 PM AKST
Civil Twilight 8:59 AM AKST 3:39 PM AKST
Nautical Twilight 7:48 AM AKST 4:49 PM AKST
Astronomical Twilight 6:46 AM AKST 5:51 PM AKST
Moon 10:21 AM AKST (12/13) 3:28 PM AKST (12/13)
Length of Visible Light 6h 39m
Length of Day
3h 53m
New Moon, 0% of the Moon is Illuminated
Dec 13
New Moon
Dec 19
First Quarter
Dec 28
Full
Jan 4
Last Quarter
Jan 11
New

Hourly Weather History & Observations

Time (AKST) Temp. Windchill Dew Point Humidity Pressure Visibility Wind Dir Wind Speed Gust Speed Precip Events Conditions
12:53 AM 17.1 °F 5.0 °F 10.0 °F 74% 29.16 in 10.0 mi SE 10.4 mph 19.6 mph N/A   Partly Cloudy
1:53 AM 17.1 °F 5.0 °F 9.0 °F 71% 29.16 in 10.0 mi SE 10.4 mph 18.4 mph N/A   Mostly Cloudy
3:53 AM 18.0 °F 8.7 °F 10.0 °F 71% 29.15 in 10.0 mi SE 6.9 mph - N/A   Overcast
4:53 AM 17.1 °F 3.6 °F 9.0 °F 71% 29.15 in 10.0 mi SE 12.7 mph 19.6 mph N/A   Mostly Cloudy
5:53 AM 18.0 °F 6.9 °F 10.0 °F 71% 29.15 in 10.0 mi SE 9.2 mph - N/A   Scattered Clouds
6:53 AM 18.0 °F 6.1 °F 10.0 °F 71% 29.17 in 10.0 mi SE 10.4 mph 20.7 mph N/A   Mostly Cloudy
7:53 AM 17.1 °F 7.6 °F 9.0 °F 71% 29.18 in 10.0 mi ESE 6.9 mph - N/A   Partly Cloudy
8:53 AM 17.1 °F 7.6 °F 9.0 °F 71% 29.20 in 10.0 mi Variable 6.9 mph - N/A   Overcast
9:53 AM 18.0 °F 12.7 °F 10.0 °F 71% 29.21 in 10.0 mi Variable 3.5 mph - N/A   Mostly Cloudy
10:53 AM 17.1 °F 5.0 °F 9.0 °F 71% 29.22 in 10.0 mi ESE 10.4 mph 17.3 mph N/A   Overcast
11:53 AM 17.1 °F 10.0 °F 9.0 °F 71% 29.24 in 10.0 mi SE 4.6 mph - N/A   Overcast
12:53 PM 17.1 °F 10.0 °F 9.0 °F 71% 29.25 in 10.0 mi Variable 4.6 mph - N/A   Overcast
3:53 PM 15.1 °F 9.4 °F 8.1 °F 74% 29.30 in 8.0 mi ESE 3.5 mph - 0.00 in Snow Light Snow
4:15 PM 15.8 °F 10.2 °F 8.6 °F 73% 29.27 in 1.8 mi Variable 3.5 mph - 0.00 in Snow Light Snow
4:22 PM 14.0 °F 3.9 °F 8.6 °F 79% 29.27 in 1.2 mi SSE 6.9 mph - 0.00 in Snow Light Snow
4:41 PM 14.0 °F - 8.6 °F 79% 29.28 in 0.5 mi Calm Calm - 0.01 in Snow Snow
4:53 PM 14.0 °F 5.1 °F 10.0 °F 84% 29.32 in 0.8 mi ESE 5.8 mph - 0.02 in Snow Light Snow
5:12 PM 12.2 °F - 8.6 °F 85% 29.28 in 1.2 mi Calm Calm - 0.01 in Snow Light Snow
5:31 PM 12.2 °F 4.3 °F 8.6 °F 85% 29.29 in 1.8 mi NE 4.6 mph - 0.02 in Snow Light Snow
5:41 PM 12.2 °F 6.1 °F 8.6 °F 85% 29.29 in 2.0 mi NE 3.5 mph - 0.02 in Snow Light Snow
5:49 PM 12.2 °F - 8.6 °F 85% 29.29 in 1.8 mi Calm Calm - 0.02 in Snow Light Snow
5:53 PM 12.9 °F - 8.1 °F 81% 29.34 in 1.8 mi Calm Calm - 0.02 in Snow Light Snow
6:01 PM 12.2 °F - 6.8 °F 79% 29.30 in 2.5 mi Calm Calm - 0.00 in Snow Light Snow
6:15 PM 12.2 °F - 8.6 °F 85% 29.31 in 3.0 mi Calm Calm - 0.00 in Snow Light Snow
6:30 PM 12.2 °F - 8.6 °F 85% 29.31 in 2.5 mi Calm Calm - 0.00 in Snow Light Snow
6:44 PM 12.2 °F - 8.6 °F 85% 29.31 in 1.2 mi Calm Calm - 0.00 in Snow Light Snow
6:53 PM 12.9 °F - 8.1 °F 81% 29.37 in 1.2 mi Calm Calm - 0.00 in Snow Light Snow
7:19 PM 12.2 °F - 8.6 °F 85% 29.32 in 2.0 mi Calm Calm - 0.01 in Snow Light Snow
7:32 PM 12.2 °F - 8.6 °F 85% 29.32 in 1.8 mi Calm Calm - 0.01 in Snow Light Snow
7:40 PM 12.2 °F - 6.8 °F 79% 29.33 in 2.0 mi Calm Calm - 0.01 in Snow Light Snow
7:53 PM 10.9 °F - 7.0 °F 84% 29.38 in 2.0 mi Calm Calm - 0.01 in Snow Light Snow
8:00 PM 10.4 °F - 6.8 °F 85% 29.32 in 1.8 mi Calm Calm - 0.00 in Snow Light Snow
8:11 PM 10.4 °F - 6.8 °F 85% 29.33 in 2.5 mi Calm Calm - 0.00 in Snow Light Snow
8:40 PM 10.4 °F 4.0 °F 6.8 °F 85% 29.34 in 3.0 mi East 3.5 mph - 0.00 in Snow Light Snow
8:49 PM 10.4 °F - 6.8 °F 85% 29.34 in 2.5 mi Calm Calm - 0.00 in Snow Light Snow
8:53 PM 10.9 °F - 7.0 °F 84% 29.39 in 2.5 mi Calm Calm - 0.00 in Snow Light Snow
9:15 PM 10.4 °F - 6.8 °F 85% 29.34 in 3.0 mi Calm Calm - 0.00 in Snow Light Snow
9:23 PM 10.4 °F - 6.8 °F 85% 29.34 in 2.5 mi Calm Calm - 0.00 in Snow Light Snow
9:30 PM 10.4 °F - 6.8 °F 85% 29.34 in 3.0 mi Calm Calm - 0.00 in Snow Light Snow
9:34 PM 10.4 °F - 6.8 °F 85% 29.34 in 2.5 mi Calm Calm - 0.00 in Snow Light Snow
9:53 PM 10.9 °F - 6.1 °F 81% 29.39 in 2.5 mi Calm Calm - 0.00 in Snow Light Snow
10:14 PM 10.4 °F - 6.8 °F 85% 29.34 in 3.0 mi Calm Calm - 0.00 in Snow Light Snow
10:32 PM 10.4 °F - 6.8 °F 85% 29.34 in 2.5 mi Calm Calm - 0.00 in Snow Light Snow
10:50 PM 10.4 °F - 6.8 °F 85% 29.35 in 4.0 mi Calm Calm - 0.00 in Snow Light Snow
10:53 PM 10.0 °F - 6.1 °F 84% 29.40 in 4.0 mi Calm Calm - 0.00 in Snow Light Snow
11:17 PM 8.6 °F - 5.0 °F 85% 29.36 in 3.0 mi Calm Calm - 0.00 in Snow Light Snow
11:28 PM 8.6 °F - 3.2 °F 79% 29.36 in 2.5 mi Calm Calm - 0.00 in Snow Light Snow
11:35 PM 8.6 °F - 3.2 °F 79% 29.36 in 3.0 mi Calm Calm - 0.00 in Snow Light Snow
11:53 PM 7.0 °F - 3.0 °F 84% 29.42 in 5.0 mi Calm Calm - 0.00 in   Overcast